Location: Arezzo
(43.4170°N, 11.8830°E)
Time: 02:32:40
(UTC+01:00)

STARLINK-2709 - Pass Details

Date: 31 October 2021
Orbit: 546 x 548 km, 53.1° (Epoch: 01 December)

Event Time Altitude Azimuth Distance (km) Brightness Sun altitude
Exits shadow 03:56:10 23° 58° (ENE) 1,192 5.9 -31.3°
Drops below altitude 10° 03:57:47 10° 57° (ENE) 1,819 7.0 -31.0°
Sets 04:00:02 0° 56° (NE) 2,716 8.1 -30.6°
